RH
69 72 74 75 77 77 76 83 84 82 80 74 73 77 78 73 72 75 72 74 76 75 74 71 74 75 74 70 68 66 60 61 58 63 78 63 34 41 56 51 49 49 43 36 33 36 35 30 22 19 23 26 27 27 27 26 25 25 25 26 27 29 29 31 30 31 32 35 37 31 28 27 26 26 26 27 25 25 25 28 36 47 53 56 56 41 41 49 52 61 63 61 60 60 60 61 59
67 69 71 73 77 79 78 78 81 82 80 79 79 74 76 76 75 76 74 77 76 76 77 74 76 78 77 74 71 67 65 69 60 66 81 56 29 40 53 50 51 51 42 32 29 33 32 26 20 20 25 26 26 27 27 25 26 26 27 28 29 31 31 32 31 32 35 37 36 31 29 27 31 32 27 27 27 26 25 26 32 44 52 55 57 43 39 49 52 58 59 59 61 61 60 58 58
67 69 68 69 70 72 73 72 73 72 70 78 82 73 74 80 75 74 76 76 73 74 80 79 78 77 79 78 75 70 71 76 64 71 82 52 30 38 48 52 53 54 43 29 27 30 29 24 20 22 26 27 27 28 28 27 27 29 29 31 31 32 33 33 33 34 36 37 35 31 28 29 43 44 29 27 27 27 27 27 30 40 52 54 57 46 38 49 54 56 57 58 62 62 60 57 57
66 69 67 64 62 63 66 67 67 65 65 72 79 78 78 80 77 78 76 71 70 75 80 82 82 79 79 82 83 79 75 79 72 78 83 53 34 38 46 50 51 53 42 27 25 27 27 23 21 23 27 28 28 29 29 29 30 31 31 32 33 33 34 34 35 35 35 36 33 30 29 29 42 44 30 27 27 27 27 28 29 35 48 54 56 47 39 48 53 56 57 58 63 64 62 59 58
64 66 65 61 56 56 58 62 64 65 67 69 72 76 77 77 79 82 78 74 71 71 77 80 83 83 81 82 83 81 78 79 76 81 85 57 38 41 45 47 49 48 36 25 24 24 25 23 22 23 28 28 29 30 30 31 32 33 33 34 34 34 35 34 36 36 35 34 31 29 29 29 33 33 27 28 31 32 33 33 31 32 43 53 55 45 39 49 53 56 58 59 64 65 62 63 63
61 63 63 59 53 51 55 60 62 64 69 72 71 69 69 70 75 78 79 81 74 71 78 78 79 83 83 81 78 78 78 78 76 82 86 60 44 47 46 47 48 43 30 22 22 23 22 21 22 24 28 29 30 31 31 33 33 34 34 35 35 35 35 35 36 35 34 32 30 29 29 29 29 29 33 39 43 44 45 44 38 33 39 50 54 43 40 50 53 56 58 60 64 64 62 62 64
58 61 62 60 54 51 55 60 63 66 68 71 72 70 67 67 72 75 79 82 77 74 78 77 78 81 83 81 78 78 78 80 76 79 83 63 52 53 48 49 48 41 28 21 22 21 19 19 21 24 28 30 30 32 33 34 34 35 35 35 35 35 35 34 34 33 32 30 29 30 29 29 31 40 46 49 49 50 50 51 46 37 37 48 53 43 42 51 53 56 58 58 61 64 65 63 63
55 57 59 60 57 53 55 58 64 66 66 68 69 72 73 71 74 74 76 79 78 76 72 72 74 76 78 75 77 77 75 79 70 69 75 64 58 55 50 51 49 42 28 20 22 19 17 18 21 24 28 30 31 33 34 35 35 35 35 36 36 35 35 33 32 31 29 29 29 30 29 32 42 50 49 47 45 46 50 51 49 41 38 47 53 41 40 51 52 55 57 57 60 62 65 64 65
52 54 57 59 58 55 55 58 63 65 65 66 67 69 74 77 75 72 72 73 74 75 73 72 73 75 75 72 76 73 69 72 62 61 70 65 60 54 52 52 49 43 29 21 20 18 16 16 21 24 28 30 31 33 34 35 35 35 36 36 35 35 33 32 31 29 29 29 29 30 34 39 49 51 44 40 36 38 45 51 50 42 40 47 53 40 39 52 51 54 57 58 61 62 64 65 66
47 49 52 57 60 58 55 57 60 65 65 64 68 67 70 75 73 72 72 71 69 72 76 77 79 80 76 74 74 66 64 63 53 57 67 68 60 53 54 53 50 44 31 23 19 17 16 15 19 23 28 30 31 33 33 34 35 36 36 35 35 33 32 31 29 29 29 29 30 34 40 42 47 49 42 37 34 34 37 48 51 43 43 50 53 40 42 56 52 53 58 59 62 63 65 65 66
43 43 45 51 59 60 57 55 56 63 63 60 64 65 67 69 70 71 70 70 68 73 80 82 85 83 76 76 71 62 61 56 53 60 68 69 61 54 56 54 51 45 33 25 20 17 16 15 18 21 27 30 31 32 32 33 34 35 35 34 33 32 30 30 29 29 29 30 33 37 39 39 43 46 43 38 35 34 31 43 50 44 46 52 52 41 46 57 53 55 59 60 62 65 67 66 68
37 38 41 45 51 59 59 52 52 57 59 58 59 61 64 66 70 70 68 67 65 72 81 82 86 84 78 76 72 65 61 56 61 69 70 69 64 58 57 55 54 48 36 27 21 19 17 16 17 19 25 29 31 31 31 32 33 34 33 32 31 30 29 29 29 29 29 31 34 36 36 37 41 42 42 39 35 32 29 40 49 48 50 55 51 40 48 56 53 57 59 61 64 66 68 69 72
34 34 37 40 42 51 57 51 47 51 53 55 56 57 61 62 65 65 64 64 65 71 74 76 78 80 79 75 72 70 64 59 64 76 79 73 68 63 58 56 56 51 42 32 25 23 21 19 18 18 21 26 29 31 31 32 32 32 31 31 30 29 29 29 30 29 29 31 33 35 34 36 39 39 39 38 35 31 28 37 49 52 53 56 50 40 49 55 53 58 59 62 65 67 69 70 74
32 33 34 36 36 39 50 50 46 48 48 49 52 54 58 60 60 59 60 60 62 66 66 70 71 74 76 75 75 73 68 63 65 77 85 80 72 67 61 58 58 55 48 39 31 27 25 23 22 20 19 23 27 30 31 32 31 31 31 30 30 29 29 29 30 30 30 31 32 33 33 34 37 38 37 36 36 31 28 36 47 54 55 56 48 40 49 54 53 57 59 61 64 68 69 70 73
30 32 33 33 33 32 40 46 44 47 48 48 49 52 56 57 59 58 58 57 57 58 62 67 68 71 76 77 79 77 74 70 66 71 81 83 77 71 65 59 59 58 53 47 39 33 30 27 26 25 23 22 24 27 29 29 29 30 30 30 30 30 30 30 30 31 31 31 31 31 33 34 35 37 36 34 34 30 29 36 47 55 57 55 44 39 50 55 54 56 59 62 65 68 69 70 72
27 29 31 31 31 30 34 40 42 44 47 48 47 49 53 53 57 59 59 60 60 60 61 64 64 67 73 74 72 74 78 77 70 69 74 79 78 74 70 63 60 60 57 53 47 40 35 30 29 29 28 25 24 25 25 25 26 28 29 29 30 30 30 31 30 31 31 30 31 30 32 34 35 37 35 32 32 30 28 35 49 56 58 55 42 41 55 57 55 56 59 63 66 69 70 71 72
27 27 29 29 30 29 29 35 39 40 42 44 43 48 53 53 55 58 58 59 63 65 64 67 64 62 67 68 67 69 75 79 73 68 70 73 73 70 69 66 63 62 60 57 53 47 42 36 33 32 31 30 27 26 25 24 24 25 26 27 29 30 30 31 31 31 31 31 31 30 32 33 35 36 34 30 29 29 27 33 49 56 57 54 43 47 59 57 55 57 60 66 68 71 73 73 73
25 26 27 27 28 27 28 33 37 39 38 37 38 45 52 56 57 55 56 58 62 66 66 71 68 61 65 66 67 68 69 76 75 69 67 68 68 66 64 65 64 63 62 59 57 53 49 44 40 38 36 34 32 30 29 28 27 26 26 26 27 28 29 30 30 31 31 31 31 31 31 31 32 32 31 29 27 28 26 31 48 57 56 50 45 55 62 58 57 59 63 69 71 71 73 75 77
23 23 24 24 26 26 28 31 32 37 36 34 35 39 47 56 60 59 59 59 62 65 68 73 67 58 61 62 64 67 66 70 76 77 73 71 71 67 65 65 64 64 63 61 60 58 55 52 47 45 44 42 38 35 34 33 33 32 31 31 30 29 29 28 29 29 30 31 31 31 31 30 30 30 29 28 26 28 26 29 47 59 56 49 51 63 64 60 59 61 66 69 72 73 74 75 77
21 21 22 24 27 27 27 26 26 31 34 35 35 37 44 54 63 65 63 60 60 64 67 71 66 58 60 63 64 66 67 68 70 69 68 70 73 73 71 69 67 65 64 63 64 64 61 58 54 50 50 51 47 41 40 38 39 39 38 39 38 38 36 35 33 31 30 30 30 29 29 29 29 29 27 27 26 27 26 28 49 60 54 49 55 66 64 60 61 63 67 68 73 76 75 74 74
20 19 21 24 27 27 24 20 22 28 32 35 37 39 44 53 61 65 65 62 62 62 63 64 63 62 64 65 65 67 70 67 63 58 58 62 66 72 75 76 77 72 70 68 68 69 67 65 59 55 53 55 54 50 46 44 44 44 44 44 45 46 46 45 43 41 38 33 32 30 29 29 28 29 27 26 25 27 26 29 52 61 52 53 59 66 64 61 63 65 68 72 78 78 73 73 75
18 18 21 23 27 29 22 18 23 29 31 35 39 42 45 51 59 63 64 65 63 60 61 60 60 63 63 62 62 64 67 66 66 63 58 60 60 66 72 77 79 75 74 74 73 75 75 73 68 63 58 56 57 56 53 51 50 48 47 48 48 49 50 51 51 50 49 45 43 39 36 35 33 32 29 28 26 28 26 30 57 61 50 57 64 67 65 62 66 68 72 77 79 74 73 78 77
18 18 21 24 27 28 22 19 25 30 33 36 39 41 46 53 58 61 63 64 61 57 60 60 59 63 63 61 59 58 60 59 68 72 67 65 63 63 65 68 72 73 78 81 81 82 82 82 80 74 67 63 61 60 59 57 56 54 51 51 50 52 53 53 52 50 51 51 51 49 46 43 41 38 33 31 28 30 26 32 61 63 50 58 66 68 66 64 68 71 75 80 78 73 78 82 78
19 19 22 24 27 27 21 20 26 31 34 36 38 41 49 56 59 62 63 61 59 57 59 61 60 63 61 57 56 56 57 55 63 74 76 75 73 73 69 64 70 76 80 83 85 85 85 86 86 85 79 74 72 69 68 65 62 60 58 57 56 58 59 58 55 51 48 47 48 48 48 46 45 42 38 35 31 31 27 35 63 64 54 62 67 69 69 67 69 70 76 83 81 76 81 81 74
21 21 23 24 25 26 23 22 28 33 35 36 39 42 51 58 58 61 63 61 59 56 59 63 65 68 62 56 57 57 59 61 64 72 77 77 77 81 77 68 67 71 73 78 81 81 84 87 88 89 87 84 82 79 77 74 67 61 60 61 63 65 65 63 60 56 53 49 47 43 42 42 42 42 41 38 33 31 28 41 67 65 57 63 65 68 71 72 71 69 70 78 84 82 82 80 74
19 21 23 24 25 27 25 23 28 34 37 38 40 43 50 56 57 59 61 63 61 56 58 65 68 71 66 60 62 63 65 70 73 75 76 75 75 76 76 72 69 70 73 73 74 77 82 86 86 86 89 89 85 82 79 76 68 60 59 61 64 67 66 64 61 59 59 58 55 49 45 40 37 39 39 38 34 30 31 50 72 66 59 62 63 66 69 74 75 69 68 74 84 86 81 78 75
17 18 21 24 26 28 28 25 28 34 38 40 42 42 46 51 54 57 60 65 65 57 58 63 67 75 78 75 71 70 73 76 78 77 76 76 74 73 73 72 72 73 74 71 70 76 79 82 84 82 84 87 83 79 77 76 72 66 64 65 67 68 67 66 63 62 63 63 61 60 56 44 36 36 36 36 33 30 36 58 75 69 62 62 62 65 67 74 78 73 70 72 79 82 82 78 73
16 16 17 22 25 29 31 27 26 32 37 40 42 39 42 48 50 55 59 64 66 59 60 64 70 77 77 75 70 69 69 71 77 81 84 83 76 77 77 74 76 76 77 79 78 77 77 81 85 81 75 78 80 78 77 76 76 75 74 74 73 73 73 72 70 68 68 66 64 65 62 52 41 36 34 34 32 36 46 62 76 73 63 61 63 66 68 73 76 74 71 69 75 81 83 79 72
16 16 16 19 22 29 34 31 26 30 34 36 44 42 40 45 47 51 56 61 63 61 65 68 70 71 67 65 64 67 70 69 75 80 83 83 79 81 82 81 83 81 82 85 81 77 80 82 81 78 70 72 79 81 80 78 77 77 77 78 77 78 78 77 75 73 72 71 73 71 65 59 52 44 37 34 39 50 58 64 76 76 63 60 64 67 69 69 69 72 72 67 73 79 80 80 75
16 15 16 16 18 27 34 34 28 28 31 33 45 48 41 42 47 50 54 59 61 62 71 73 66 61 61 65 63 66 72 72 75 78 77 78 82 83 79 82 86 85 84 80 77 77 78 78 74 73 71 72 76 79 79 77 77 77 76 76 77 79 80 78 76 75 75 77 81 79 72 68 65 58 46 44 55 66 66 66 76 77 66 59 61 66 67 66 64 69 73 69 72 79 82 84 78
16 15 15 15 17 25 32 37 35 29 30 32 41 48 43 42 48 52 54 57 59 63 76 77 65 58 59 67 67 66 72 74 75 77 78 78 82 84 78 79 82 84 84 79 81 82 76 74 70 66 65 67 71 74 73 71 73 74 74 75 77 80 82 80 78 76 76 78 80 80 77 75 74 70 59 57 68 75 70 68 76 78 70 60 57 63 64 63 63 65 69 67 69 75 80 85 81
15 15 15 16 18 25 33 40 42 32 29 33 39 46 45 42 47 54 56 56 56 61 77 79 65 58 62 70 75 73 72 75 75 73 76 75 75 82 79 77 78 81 85 84 85 81 73 73 71 66 64 66 71 74 71 67 69 71 71 73 76 79 81 80 79 78 77 76 77 79 79 79 79 76 71 69 73 77 71 68 78 80 72 61 55 62 63 60 61 61 63 62 64 68 74 84 84
15 14 14 15 15 21 31 42 45 36 31 37 41 45 46 41 46 55 56 53 52 55 69 77 71 64 63 70 80 82 75 77 82 77 71 68 71 78 77 76 78 79 81 82 81 80 76 75 74 72 70 71 70 68 68 69 71 73 71 70 71 73 76 77 79 78 76 75 75 76 78 78 79 78 77 76 76 77 70 68 79 80 72 59 52 61 64 59 58 59 60 57 57 60 68 82 83
13 13 13 14 14 14 21 33 42 37 33 38 43 44 44 41 43 52 56 52 48 50 58 69 75 71 64 67 76 76 69 72 80 78 70 64 69 75 72 72 75 75 77 76 77 80 79 77 77 77 77 77 70 63 66 71 72 74 74 70 69 69 71 73 76 75 73 74 74 73 74 75 76 76 77 78 76 76 70 69 79 80 71 57 51 60 63 58 56 58 59 55 52 52 61 74 75
12 13 13 13 15 14 14 22 35 37 32 37 44 46 42 40 41 46 52 51 47 48 52 59 67 67 64 69 73 67 62 65 70 75 75 66 66 70 67 68 71 72 76 75 74 77 79 79 80 81 83 84 81 72 70 73 72 75 76 69 66 68 71 73 73 71 70 70 71 72 74 74 72 73 75 76 75 74 69 69 78 79 71 56 50 58 59 55 53 57 61 57 53 50 54 64 65
13 14 14 14 14 15 16 21 33 36 32 39 48 46 41 41 42 43 48 51 48 48 50 54 56 57 61 64 65 60 57 60 62 68 72 64 63 66 62 66 74 77 78 75 73 76 80 82 84 88 90 88 87 79 74 75 74 75 74 66 62 64 70 75 75 72 70 69 70 73 77 77 74 71 71 73 73 71 66 69 76 77 69 54 48 55 57 51 49 55 61 57 53 48 44 51 57
13 13 13 14 15 19 22 24 35 36 35 47 51 42 40 44 45 42 46 49 47 48 49 50 51 51 56 56 55 53 51 53 55 59 62 59 61 64 61 62 69 75 77 75 75 75 75 76 81 90 90 84 83 79 77 78 76 75 71 64 63 66 72 77 77 74 72 71 73 76 78 79 77 71 68 70 70 67 64 68 73 72 66 54 45 50 55 50 47 53 58 55 52 47 40 42 50
12 12 12 12 16 23 25 28 37 38 41 51 49 42 41 44 49 47 46 48 47 47 47 48 50 50 54 57 54 51 50 53 54 54 56 56 59 61 61 60 61 65 68 70 73 76 76 75 75 80 78 77 78 75 74 76 77 77 73 70 73 76 79 79 79 78 75 74 75 76 77 76 75 71 68 68 67 65 64 66 69 66 62 57 46 45 53 52 49 52 55 55 52 45 41 42 47
11 11 10 12 16 25 33 38 41 40 45 48 41 44 46 47 58 59 52 51 47 45 46 46 49 51 54 57 55 51 50 53 54 55 57 58 60 57 56 59 59 60 62 63 65 67 73 74 73 75 73 71 71 69 69 73 78 80 77 78 82 82 82 81 81 80 77 73 73 75 75 74 72 70 68 65 64 63 63 64 64 62 60 57 47 42 50 52 49 50 51 55 51 41 41 42 45
11 11 10 11 14 22 34 42 47 46 46 43 34 41 54 58 66 63 53 51 48 47 49 48 49 52 54 54 54 52 50 51 54 57 60 61 62 58 54 53 53 53 55 58 59 60 65 68 69 72 71 68 71 72 70 71 77 79 77 79 81 81 80 79 79 77 75 74 74 76 76 76 73 68 66 63 61 60 61 62 62 61 59 54 46 42 49 50 46 47 49 53 48 38 39 41 43
11 11 11 11 12 19 28 36 48 50 47 43 34 41 61 66 66 60 52 53 53 52 53 52 52 52 52 54 56 53 50 51 53 56 60 61 61 59 55 53 51 50 50 53 56 61 64 65 66 69 70 70 75 79 78 76 76 78 82 81 76 74 73 73 74 75 76 74 76 79 80 80 73 65 63 60 59 58 59 61 60 61 60 53 44 41 47 49 45 46 48 51 47 36 36 39 42
11 11 10 11 13 19 28 34 43 48 50 48 40 52 77 76 66 60 56 60 58 53 54 53 53 52 51 54 56 54 52 53 53 53 57 60 62 60 58 56 53 51 50 49 51 58 64 63 61 63 66 69 72 76 80 81 81 83 88 82 73 70 68 69 73 75 76 75 79 84 83 81 73 64 62 59 58 58 58 59 59 60 60 54 45 40 45 47 45 46 49 52 48 37 34 37 41
11 11 10 12 14 19 29 33 36 40 46 52 46 55 81 85 74 68 66 69 63 55 55 54 55 56 53 54 55 54 55 55 55 54 52 56 60 60 58 56 53 51 52 51 50 54 58 58 57 56 58 62 67 70 70 72 78 84 87 80 76 77 73 74 79 77 74 75 80 82 78 74 68 61 61 60 58 58 58 61 62 61 59 53 45 40 41 45 46 48 51 54 50 40 36 39 46
11 11 10 13 14 20 30 32 34 34 39 54 54 47 65 82 79 72 72 76 70 61 58 57 58 59 57 58 57 56 58 59 61 59 54 54 56 57 58 56 53 51 52 52 52 55 55 55 56 56 56 57 59 61 60 61 65 70 73 71 72 76 76 78 81 80 76 76 79 79 76 74 67 60 58 58 60 64 64 66 65 60 54 48 42 39 40 45 49 52 53 54 52 46 44 47 52
11 11 12 15 17 26 38 37 35 35 37 54 59 48 65 88 84 75 76 79 76 67 60 59 61 61 60 61 59 57 58 60 62 62 59 57 55 55 56 55 54 53 54 54 54 56 56 54 54 54 55 54 54 55 56 58 59 59 61 62 63 67 72 75 79 80 78 77 78 79 79 77 72 66 60 55 57 63 66 67 65 58 50 42 36 37 41 45 50 54 54 54 53 51 50 52 55
11 12 13 17 24 34 43 44 41 40 43 54 57 54 72 94 94 85 82 83 79 70 64 63 62 61 61 61 59 58 57 57 60 62 63 63 61 60 58 56 55 55 56 57 56 56 55 56 55 53 53 53 52 51 54 57 59 60 61 60 60 63 67 70 72 74 75 75 77 79 79 76 71 70 68 61 55 55 59 61 62 59 51 40 33 33 38 43 48 52 54 55 54 54 53 54 57
12 13 15 21 34 42 45 49 45 42 50 56 56 59 68 84 94 90 84 86 82 74 69 65 62 61 62 63 62 60 59 59 60 60 59 59 59 62 62 62 62 61 61 61 61 60 59 59 59 55 55 56 51 47 49 53 56 60 64 64 62 63 66 70 72 72 72 71 73 77 79 75 70 70 70 67 62 58 57 56 57 60 55 42 30 28 35 39 42 47 52 56 56 57 57 57 59
12 13 15 26 46 51 48 49 44 45 58 60 58 62 62 67 83 88 85 84 80 73 69 66 65 66 68 68 67 64 63 61 57 52 48 44 44 45 48 52 55 57 61 63 65 66 64 63 62 60 59 58 55 52 50 51 53 56 59 61 62 63 65 68 72 74 74 71 69 72 75 72 68 67 66 66 67 67 63 57 54 58 58 46 30 24 31 37 38 42 48 52 55 57 58 57 57
13 14 17 31 54 58 49 47 49 59 69 67 64 63 62 66 76 84 85 81 75 73 71 72 73 72 71 71 69 66 63 56 48 41 37 34 32 31 30 31 32 34 38 43 48 54 58 60 61 62 62 61 62 59 54 53 54 55 57 59 61 62 62 64 67 70 73 73 70 68 70 69 66 65 64 62 63 66 67 60 54 55 58 53 38 25 25 32 36 37 39 42 46 48 49 50 51
13 15 16 26 45 55 53 49 58 76 79 72 70 64 64 75 82 84 83 78 76 77 76 77 77 73 69 70 68 61 54 47 41 37 33 30 27 25 24 23 23 23 24 27 30 34 41 47 52 57 60 62 64 62 59 60 61 61 61 63 64 63 61 61 62 65 68 72 73 72 70 69 66 63 61 59 59 63 69 65 55 52 56 56 46 31 21 23 27 29 30 31 34 37 39 41 44
14 16 15 17 24 36 43 43 54 77 83 74 70 68 71 82 88 87 83 80 81 81 80 81 80 73 68 68 66 58 51 47 43 40 36 33 28 24 24 25 27 28 29 30 31 31 32 34 40 48 55 61 65 65 63 64 66 65 64 66 67 64 61 59 59 62 64 67 71 74 74 73 69 63 58 58 60 61 67 67 57 51 52 53 50 39 26 19 20 21 23 24 27 31 36 38 42
15 17 17 17 16 19 30 41 48 65 82 82 74 74 80 87 91 89 86 85 85 84 85 86 83 77 70 66 65 60 55 52 47 42 38 36 31 26 26 28 30 31 31 31 32 32 31 30 31 35 42 51 60 67 68 67 67 66 66 70 73 71 66 63 62 63 64 67 69 71 73 74 73 68 62 60 60 60 64 67 61 52 49 50 50 46 37 27 21 19 20 21 25 31 37 41 44
15 16 16 17 17 18 30 53 59 61 79 91 86 85 90 91 92 91 88 87 88 89 88 88 85 78 70 67 67 65 59 55 52 46 41 39 34 28 25 26 27 27 26 27 28 29 28 29 28 27 29 33 40 52 62 69 73 73 73 74 76 76 70 66 65 66 68 70 71 72 73 73 72 71 69 65 60 59 61 65 63 55 48 48 49 47 45 38 30 24 22 22 25 32 40 44 46
15 16 16 16 20 21 26 53 73 73 85 97 93 95 98 91 85 85 85 84 85 87 88 88 85 77 71 71 72 67 61 59 59 53 47 42 35 30 25 23 22 23 23 23 24 25 26 27 28 27 26 26 27 31 39 50 61 72 80 80 78 77 74 72 69 66 66 68 72 74 74 74 73 71 72 71 66 60 59 62 63 59 51 48 50 51 49 47 40 33 29 28 30 37 44 46 47
17 17 17 15 19 23 23 40 59 70 90 99 95 100 98 81 72 72 74 73 73 80 87 88 82 73 72 74 72 68 64 64 64 59 53 48 44 40 32 24 22 23 26 27 26 27 28 28 28 27 26 25 25 25 27 32 39 50 66 78 82 80 76 76 75 71 67 64 68 72 72 72 75 74 72 73 73 66 61 61 63 61 55 51 52 53 53 51 47 41 37 37 38 42 45 46 46
19 18 18 16 17 20 21 28 36 55 90 101 95 102 90 66 61 64 68 72 73 80 87 84 77 70 69 72 71 69 68 68 67 60 55 53 51 46 35 27 27 29 31 33 32 31 29 28 27 26 26 25 24 23 23 26 30 34 43 56 71 79 79 77 75 74 72 68 67 72 71 69 73 76 74 72 74 73 71 71 69 64 59 57 55 54 54 53 50 47 44 44 45 45 46 46 47
21 19 20 19 19 19 21 27 28 42 79 98 99 99 76 51 56 64 71 80 80 83 84 79 73 67 66 71 72 71 71 68 60 50 47 47 43 37 30 26 29 33 35 35 33 31 29 27 26 23 24 25 26 25 24 23 25 28 31 37 47 61 71 76 74 71 70 70 71 74 74 71 72 77 77 71 71 76 77 77 75 70 64 61 60 58 55 53 51 50 49 50 50 49 48 48 49
21 20 21 20 20 20 22 33 34 34 57 77 84 86 64 47 57 66 74 84 84 84 83 75 69 66 71 76 76 75 70 57 42 34 34 36 32 27 27 29 31 34 36 35 31 29 28 27 26 23 23 24 26 28 26 25 24 25 27 31 35 41 49 60 67 68 66 65 68 73 75 74 74 78 80 75 71 74 75 73 74 76 70 64 63 61 56 53 52 52 53 55 56 55 52 51 52
Wind_Speed
15 14 13 13 12 12 11 9 9 10 11 12 11 10 10 10 11 10 9 10 10 10 11 11 13 13 13 11 9 11 10 12 14 11 4 6 17 23 20 17 18 18 18 18 19 20 21 22 24 25 25 24 23 22 22 23 23 23 23 23 22 21 21 20 19 17 15 14 12 11 10 11 11 11 11 11 11 11 11 11 11 11 11 11 10 8 6 6 6 7 7 6 5 4 3 3 3
15 14 14 14 13 11 11 9 9 9 10 10 9 9 10 10 10 9 8 8 8 8 10 11 12 11 9 7 8 11 9 9 14 5 1 9 19 22 20 17 17 18 18 18 18 20 21 22 25 26 25 24 23 23 23 23 24 23 23 22 22 20 19 18 16 15 14 11 11 11 10 11 11 10 9 9 10 10 10 11 11 11 12 12 11 9 7 7 7 7 7 7 5 4 3 3 3
14 14 14 14 14 12 11 11 10 9 10 9 8 8 8 9 9 9 9 8 7 8 9 11 12 10 7 6 8 10 7 7 12 7 0 11 19 20 20 18 18 18 17 18 19 20 21 22 26 27 26 24 24 24 24 24 24 23 22 21 20 19 17 16 13 12 11 9 10 10 10 11 10 8 6 7 9 9 10 10 11 12 12 12 11 9 7 6 7 7 6 6 5 4 4 3 3
13 13 14 14 13 13 13 12 10 10 10 7 6 6 7 7 7 8 8 8 8 8 9 10 11 10 7 7 8 8 8 7 10 9 3 10 18 17 19 20 19 18 18 18 19 20 21 23 26 28 26 25 24 24 24 24 24 22 21 20 19 17 15 13 11 10 9 8 9 10 9 9 8 7 6 7 8 9 9 9 11 12 13 12 11 9 6 5 6 6 5 5 4 3 4 4 3
12 13 13 14 14 14 14 13 12 11 11 8 6 6 7 7 6 7 8 8 8 7 8 8 9 9 8 9 10 9 9 8 9 9 5 10 17 17 18 19 19 18 18 19 19 20 21 24 27 28 27 26 25 25 24 24 23 22 21 19 17 16 14 13 10 9 8 7 8 9 8 7 6 7 7 7 8 9 9 10 11 11 12 11 10 7 5 4 5 5 4 3 3 3 4 3 3
10 11 12 14 16 17 16 15 13 13 12 10 8 6 7 6 6 6 7 6 6 7 7 7 6 6 7 8 10 10 9 9 9 8 6 11 17 17 18 19 19 18 19 19 19 20 22 24 27 28 28 26 26 25 24 24 23 22 21 19 17 15 14 12 10 9 8 7 8 8 7 6 7 8 7 8 8 8 9 9 9 9 10 10 9 6 4 4 4 5 4 3 3 3 3 2 2
9 10 10 12 15 17 17 17 14 12 11 9 8 7 7 6 6 6 5 4 4 6 7 6 6 6 6 8 10 11 9 9 8 9 9 14 16 17 18 18 19 19 19 19 20 20 22 24 27 29 29 27 27 26 25 24 23 22 21 19 17 16 14 12 10 9 8 8 8 7 6 6 7 7 7 7 8 8 8 8 7 7 8 9 8 5 3 3 4 5 4 3 3 3 3 2 3
10 10 10 12 14 16 18 18 15 12 10 9 8 7 7 7 5 5 4 2 2 4 6 5 6 5 4 6 7 9 9 8 9 10 13 16 16 17 19 18 19 19 19 20 20 20 21 24 26 29 29 28 27 27 25 24 23 22 21 19 18 16 13 11 10 9 8 8 8 7 6 5 6 6 7 7 8 7 7 6 6 6 6 7 7 5 2 2 4 4 4 3 2 2 1 1 2
10 10 10 11 13 15 17 17 15 13 11 9 8 6 6 6 5 4 2 1 1 2 4 3 3 1 1 3 4 7 7 8 10 12 17 17 16 18 19 18 19 18 19 20 20 20 21 23 26 28 29 28 28 27 26 24 23 22 21 20 18 15 14 12 11 10 10 8 8 7 5 4 4 5 5 6 8 8 7 6 5 5 5 6 6 4 2 2 3 3 4 4 3 2 1 0 1
11 11 11 10 11 13 15 16 15 14 12 10 9 7 6 5 5 3 2 1 2 2 2 1 1 2 2 2 3 5 6 8 11 15 18 17 16 18 18 18 18 18 18 20 20 20 21 22 25 27 29 29 28 27 26 24 23 22 21 20 17 16 14 12 11 11 11 10 9 6 4 3 3 3 4 5 8 9 9 7 5 3 4 6 6 4 2 2 3 3 3 4 3 2 0 1 3
11 12 12 10 9 10 13 15 14 13 13 12 10 8 7 6 5 4 3 2 4 3 2 1 0 2 2 2 2 4 6 9 12 16 17 16 16 18 18 18 19 18 17 18 20 20 21 22 24 26 28 28 28 27 26 24 23 22 20 19 16 15 13 11 11 11 11 10 9 5 2 1 2 2 3 5 8 10 10 9 5 3 4 5 6 3 2 3 4 4 3 4 3 2 2 2 4
10 11 11 11 9 8 9 13 13 13 13 12 11 10 8 7 5 5 5 4 5 4 4 2 1 2 2 2 2 4 8 11 14 15 14 15 16 17 18 18 18 18 18 18 19 20 20 21 23 25 27 28 27 26 25 23 22 21 19 17 16 14 13 12 12 11 11 10 7 4 1 1 2 3 4 5 8 10 11 10 7 4 4 5 5 3 2 4 4 4 3 4 4 3 4 4 4
9 10 10 10 9 7 7 10 11 12 12 12 12 12 10 8 6 6 7 7 5 4 3 1 0 1 2 2 1 4 9 11 15 15 12 13 15 17 18 18 18 18 18 18 18 19 20 20 21 23 25 26 26 26 25 23 22 21 19 17 16 14 13 13 12 12 11 9 7 4 2 1 2 4 5 6 8 10 11 10 8 5 4 4 4 2 2 3 4 3 3 3 3 3 4 6 6
8 9 9 8 9 8 6 7 10 10 12 12 12 12 11 10 8 8 8 8 7 4 3 3 2 2 2 1 1 2 8 11 14 16 14 13 15 16 17 18 17 17 17 17 17 18 19 19 19 21 22 23 24 24 24 23 22 21 19 18 17 16 15 14 13 12 11 9 7 5 3 2 2 4 5 7 8 10 11 10 9 6 5 4 2 1 1 2 3 2 2 3 3 3 4 6 8
9 8 7 7 8 9 6 6 8 9 10 11 12 12 11 10 9 9 9 8 8 6 4 3 3 3 3 3 2 2 5 9 12 15 16 14 15 16 17 17 17 17 17 17 17 17 18 18 18 18 19 20 22 23 23 23 22 21 20 19 18 17 16 15 15 13 11 10 7 5 4 3 3 4 5 7 8 10 12 11 9 6 5 4 1 0 0 1 1 1 2 3 2 2 3 5 7
9 8 8 6 7 8 6 6 8 8 9 11 12 12 11 10 10 10 10 9 7 6 5 4 4 4 3 2 2 4 5 8 10 13 16 15 16 17 17 17 17 17 17 17 17 17 17 17 17 17 17 18 19 20 21 20 20 20 19 19 18 17 17 16 15 13 12 10 8 6 5 5 4 5 7 8 9 10 12 11 9 6 5 3 2 1 1 1 0 0 2 2 2 1 2 4 6
8 7 8 7 6 7 7 7 9 9 8 10 11 12 11 10 10 10 11 9 7 6 5 5 4 5 4 3 2 3 5 7 9 11 14 15 16 17 17 18 18 17 17 16 17 16 16 17 17 16 16 16 17 18 18 18 18 18 18 18 17 17 16 16 15 13 12 11 9 8 7 7 7 8 9 9 10 11 12 12 9 6 6 4 3 3 2 1 0 1 2 1 1 1 1 3 5
6 5 6 5 4 6 7 6 8 8 9 10 11 12 11 10 10 11 12 10 8 7 6 6 5 6 6 5 4 3 4 6 7 10 13 14 15 17 17 18 18 17 17 16 17 16 16 16 16 16 16 16 16 17 17 17 17 17 17 16 16 17 16 16 15 14 13 11 10 9 10 10 10 10 11 11 11 12 12 13 10 7 6 4 4 3 2 2 1 2 3 3 2 1 1 2 4
5 5 3 2 4 6 7 6 7 8 9 10 11 13 11 11 11 11 11 11 10 9 8 6 5 6 7 6 6 5 3 5 6 9 12 13 14 16 17 17 17 17 17 16 16 16 16 16 16 16 16 16 17 17 17 17 16 16 16 16 16 16 17 16 15 15 14 12 12 11 12 13 12 12 12 12 12 13 12 13 11 7 6 5 4 3 2 2 3 3 4 3 2 0 1 1 4
5 5 2 3 2 4 6 5 7 8 9 9 11 13 12 11 10 10 10 10 11 10 8 7 6 6 6 6 5 6 5 6 6 6 9 11 13 15 16 15 14 14 15 15 15 16 16 16 16 16 16 17 17 18 17 17 17 16 16 16 16 16 17 17 16 15 15 14 14 14 14 14 14 13 13 14 13 13 12 13 11 7 6 6 5 4 2 2 3 4 5 4 2 2 3 2 3
3 2 2 3 1 3 6 6 8 9 9 9 11 12 12 12 11 10 10 10 11 10 8 7 6 5 5 6 5 6 6 6 5 6 8 11 12 14 14 12 11 11 13 15 15 15 15 16 16 16 16 17 18 19 18 18 18 17 16 16 16 16 16 16 16 16 16 16 16 16 15 16 16 15 15 15 14 13 12 12 11 8 5 6 6 5 3 3 3 3 4 5 5 6 6 5 4
1 2 2 3 2 3 5 7 9 9 10 10 10 11 11 11 10 10 11 10 11 10 8 8 7 5 5 7 7 7 7 6 7 7 9 10 12 13 13 12 11 12 14 15 15 15 15 15 16 16 16 17 18 19 19 19 19 18 17 17 16 16 16 16 16 15 16 17 17 17 16 16 17 16 16 15 14 13 12 12 10 7 5 7 7 6 3 3 2 1 3 5 8 10 8 6 7
2 1 1 2 3 3 5 7 9 9 9 9 10 11 11 11 10 11 12 11 10 10 8 7 7 6 7 10 10 10 8 7 8 9 9 9 11 11 10 10 10 11 12 14 14 14 14 15 16 16 16 16 17 18 19 19 19 19 18 18 17 16 16 16 16 16 16 16 16 16 16 16 17 17 17 15 14 13 12 11 9 7 5 7 7 6 4 4 2 1 3 5 8 7 6 6 8
3 1 1 3 4 5 6 7 8 8 9 9 9 10 12 12 11 10 12 12 12 11 9 7 8 8 10 14 14 13 12 10 9 9 10 9 11 11 9 9 10 10 11 14 14 14 14 15 15 16 16 16 17 18 18 19 19 19 19 19 18 18 17 16 16 16 16 16 16 16 16 16 16 17 16 15 14 13 13 11 9 7 6 7 7 6 4 4 3 1 2 4 5 4 4 5 7
3 2 1 3 3 4 5 7 8 8 9 9 9 11 12 12 12 10 10 12 13 13 11 9 9 8 10 13 13 13 13 12 10 9 10 11 12 13 12 11 11 12 12 12 12 13 14 15 16 16 16 15 16 17 18 18 19 19 19 18 18 19 18 17 17 17 16 15 15 15 15 15 15 16 15 15 14 13 13 11 9 8 7 8 8 7 5 5 4 2 2 3 3 4 5 5 7
3 2 1 2 2 2 3 6 8 8 9 9 10 11 12 13 11 10 10 11 13 14 12 10 9 8 8 10 10 10 9 8 6 7 9 11 13 13 12 12 13 13 11 9 10 11 12 13 14 15 15 15 15 16 17 17 18 18 18 18 18 18 18 18 18 17 16 15 15 15 15 15 15 15 15 15 14 13 13 11 10 9 9 9 9 9 7 6 4 3 3 2 2 4 5 4 7
6 4 0 1 1 1 1 4 6 7 8 9 9 10 12 12 11 11 11 11 12 12 11 10 9 8 7 7 7 6 5 3 2 4 6 7 10 11 11 11 11 11 10 9 9 10 11 12 13 14 14 15 16 16 16 17 17 17 17 17 17 17 18 18 18 18 17 16 15 15 15 15 15 15 15 15 15 14 13 11 10 10 10 10 11 10 7 6 4 4 4 4 3 2 3 4 8
6 5 2 2 2 3 2 1 4 6 6 8 9 9 11 11 11 11 11 12 11 11 12 10 9 8 8 6 6 6 6 6 5 5 5 4 6 9 10 9 9 8 8 8 9 10 11 13 13 14 15 16 17 16 16 17 17 17 17 17 17 17 17 18 18 18 17 16 16 16 16 15 16 16 15 15 15 15 14 12 10 11 12 12 12 10 8 6 5 5 4 4 6 5 5 6 9
5 5 3 2 2 5 5 2 3 4 3 6 7 7 10 10 10 10 10 10 10 11 12 11 10 9 7 6 5 5 7 7 7 6 3 2 5 8 9 8 8 8 9 10 11 11 12 13 12 13 15 16 16 16 17 17 17 18 18 18 17 17 17 18 18 18 18 17 16 16 16 17 17 17 16 16 16 16 14 13 12 12 13 13 12 11 10 8 6 7 4 3 5 7 8 8 9
5 6 6 5 4 5 6 4 3 2 1 4 7 4 7 9 8 9 8 8 8 9 11 11 13 10 6 7 7 7 7 7 7 6 5 3 2 4 7 7 7 8 9 11 10 10 12 13 12 13 14 14 14 15 17 17 18 18 18 18 18 18 18 17 18 18 18 17 16 17 17 18 18 18 17 17 17 16 15 14 13 14 15 14 13 12 10 8 8 8 4 2 3 5 7 7 7
6 8 8 8 6 5 6 7 4 1 1 3 6 3 6 7 6 6 6 6 6 8 10 12 14 12 9 9 9 9 7 6 7 7 7 6 4 4 5 7 8 8 8 9 10 11 11 12 12 12 13 13 14 15 16 17 18 18 19 19 19 18 18 18 17 18 18 17 17 17 17 18 19 19 18 18 18 17 16 15 15 16 16 16 14 13 11 10 9 8 5 3 2 3 4 5 5
8 8 8 8 6 5 6 9 7 3 3 0 4 2 5 6 3 4 4 4 5 7 10 12 13 12 11 10 9 9 7 6 7 9 9 7 7 8 5 4 5 6 8 9 11 11 10 10 12 12 13 14 14 15 16 17 17 18 19 19 19 19 19 18 18 19 19 18 18 17 18 19 19 20 19 19 19 18 18 17 16 17 17 17 16 14 12 11 10 8 6 5 3 3 4 5 4
7 7 7 6 6 5 6 10 10 6 5 3 1 1 3 4 1 2 3 3 5 7 9 12 12 12 11 9 9 9 8 6 6 8 8 7 7 6 4 3 2 4 7 10 11 11 9 9 11 13 14 15 16 16 17 17 18 18 19 18 18 19 19 18 18 19 19 19 18 18 18 19 20 20 21 21 21 20 19 19 18 18 18 18 17 15 14 13 11 9 8 6 4 3 3 4 4
4 5 7 8 9 9 7 10 12 9 7 5 3 3 2 4 1 0 1 2 4 6 8 11 12 13 11 9 8 8 7 6 5 6 6 6 6 4 2 2 2 3 6 8 10 10 9 8 9 12 14 15 16 17 19 19 19 18 18 17 17 18 18 17 18 18 19 19 18 18 18 20 21 21 21 22 21 20 20 20 20 19 19 19 18 17 16 14 12 10 9 7 5 3 3 4 4
6 10 12 14 14 15 10 9 12 12 9 7 6 5 2 4 2 2 1 2 3 5 7 9 9 10 8 7 7 7 7 6 5 5 5 5 4 2 0 1 2 3 4 6 7 8 8 9 10 11 13 15 17 18 20 20 20 18 17 17 17 17 17 16 17 17 17 18 18 18 18 19 20 21 22 22 22 21 21 21 21 20 20 19 19 18 17 15 13 12 11 9 7 4 3 4 4
13 15 16 17 18 17 8 7 13 14 11 10 9 7 4 4 4 3 2 2 3 4 5 7 7 7 6 6 6 7 8 7 6 5 4 3 1 1 1 0 2 3 4 5 6 7 7 9 10 11 11 13 15 18 20 20 19 17 17 17 16 16 15 15 16 16 16 17 17 17 19 19 21 21 22 23 22 21 22 22 22 21 20 20 20 19 18 17 15 13 12 10 8 5 4 4 4
14 14 15 17 17 12 1 9 14 15 13 11 10 9 6 5 4 2 1 2 3 4 5 6 6 7 7 8 8 8 9 8 8 7 6 4 2 2 2 1 2 2 3 5 6 7 8 10 10 10 9 8 11 14 17 18 18 17 16 16 15 15 14 15 15 15 15 16 17 17 18 20 21 22 22 23 22 22 23 23 23 22 21 20 20 20 20 18 16 14 13 11 9 6 5 5 4
11 12 13 14 12 5 4 10 16 18 16 13 11 9 7 5 3 1 2 3 4 4 6 7 6 6 6 8 9 9 9 9 9 8 8 8 5 3 3 2 0 2 4 5 6 8 9 10 11 11 9 7 9 11 13 16 17 17 17 16 15 15 16 16 15 15 16 16 17 17 18 19 21 22 23 23 23 23 23 24 23 22 20 20 20 21 20 19 17 15 14 12 9 7 5 5 5
8 8 9 10 8 3 10 14 19 21 17 13 12 9 6 5 2 2 3 3 4 4 5 6 7 6 5 6 8 8 9 9 8 7 7 8 7 6 4 3 2 0 3 5 6 8 9 10 11 11 9 9 9 11 14 15 16 17 16 16 17 18 17 17 17 17 17 16 16 16 16 18 20 21 22 23 23 23 24 24 24 22 21 20 20 21 20 19 18 16 13 12 10 8 6 6 6
5 5 6 8 8 8 12 18 22 22 16 11 12 10 7 5 1 1 2 2 5 4 5 6 7 6 6 8 8 8 9 8 8 7 6 6 6 6 5 4 2 1 2 5 6 7 8 9 10 9 8 9 10 12 14 15 17 17 17 18 18 17 16 17 18 17 15 14 14 14 15 16 19 20 21 22 23 23 24 24 24 22 21 21 21 22 21 19 18 16 13 13 11 8 6 7 7
4 5 7 7 9 12 13 20 25 22 13 10 13 10 6 3 1 1 1 3 5 5 5 5 4 5 7 9 9 9 9 9 8 7 6 5 5 6 5 4 4 3 3 4 5 6 6 7 8 7 7 8 11 12 13 15 18 17 18 18 16 14 15 16 17 14 12 13 12 13 14 15 18 19 21 22 22 23 24 24 24 23 21 21 22 22 21 20 18 16 14 13 12 10 8 8 7
4 3 5 7 9 13 16 21 26 24 15 14 15 7 4 3 2 2 2 5 6 6 5 4 5 6 7 8 7 8 9 9 9 7 5 4 3 4 4 4 5 5 5 5 5 5 6 6 6 6 7 8 9 11 13 15 17 16 17 17 14 15 16 16 17 14 13 13 13 14 16 17 18 19 20 21 22 23 24 24 23 23 22 22 23 23 23 22 20 17 16 15 14 12 9 8 7
3 5 5 5 11 16 18 22 27 24 19 19 16 7 3 3 1 2 3 5 6 6 6 5 6 7 7 6 6 7 8 8 8 8 6 4 2 2 4 4 5 4 4 5 5 6 7 6 6 6 8 9 9 10 12 13 15 15 16 17 16 17 17 16 17 16 15 16 16 17 18 17 18 20 21 22 22 23 24 24 23 23 23 23 24 24 24 23 21 19 18 17 16 14 11 9 8
4 6 5 2 10 16 18 22 25 22 19 19 13 7 6 6 4 2 2 4 6 6 6 5 5 6 5 6 6 6 6 6 7 7 7 6 3 2 3 4 5 5 5 5 6 7 8 7 7 7 7 8 10 11 12 13 14 15 16 17 17 18 18 18 19 19 17 18 17 17 18 18 19 22 24 24 23 23 24 24 24 23 23 23 24 24 24 23 22 21 19 19 17 15 12 10 10
4 4 4 3 6 15 19 22 24 20 17 17 10 5 4 5 6 4 2 2 5 5 5 4 4 5 6 6 6 6 5 6 6 7 6 6 5 3 3 3 3 5 5 6 7 9 9 9 9 10 9 9 10 12 13 13 14 14 15 17 17 17 18 20 22 22 21 20 19 18 18 19 21 24 25 26 25 25 25 25 23 23 22 23 25 25 24 24 22 21 21 20 19 16 14 13 12
4 2 3 5 7 14 19 21 20 16 13 12 11 7 2 3 8 5 2 1 4 4 4 4 5 6 7 7 7 6 6 6 6 6 5 5 4 4 4 4 4 4 4 6 7 9 10 11 12 13 13 12 12 13 14 15 15 15 15 16 15 15 17 19 21 23 24 23 21 20 19 20 22 25 27 27 27 26 26 25 24 23 22 23 25 26 25 25 23 22 21 21 20 18 16 15 13
4 2 4 9 10 14 18 16 13 10 5 7 12 10 1 3 8 7 4 1 2 2 3 4 5 7 8 8 8 7 7 7 7 7 7 6 5 5 4 4 5 6 6 7 8 9 11 12 13 15 16 15 14 14 14 15 16 15 15 16 16 16 17 18 19 21 23 24 23 22 21 21 23 26 28 28 27 26 26 26 25 23 23 24 26 27 26 26 25 23 22 22 21 19 18 16 15
3 4 9 13 11 12 12 9 8 5 2 4 11 11 4 2 9 9 5 2 1 0 3 4 5 6 7 8 8 8 9 9 9 10 10 9 9 8 7 6 7 8 9 10 11 11 12 12 13 15 16 16 15 14 14 15 16 15 15 15 17 18 18 19 20 20 22 24 25 25 24 24 24 25 28 29 28 28 29 29 27 24 24 25 26 27 27 26 26 25 24 23 22 20 19 18 16
2 8 16 14 8 6 4 3 3 2 2 3 9 10 5 2 8 10 7 4 2 2 3 4 5 6 7 7 7 8 9 10 12 13 14 14 14 14 13 12 11 11 11 11 12 13 14 14 14 15 16 17 17 16 16 17 17 16 15 15 15 17 18 20 21 21 22 24 26 27 27 27 26 26 28 29 30 30 31 31 29 26 25 25 26 28 28 27 28 27 26 25 23 21 20 19 17
4 9 14 11 6 3 1 1 1 1 3 7 8 7 4 4 10 12 8 5 4 2 2 4 5 7 7 6 6 7 8 11 14 16 18 19 19 19 19 18 17 16 15 13 12 12 12 13 14 15 16 18 18 18 18 18 18 18 18 17 17 18 19 20 21 22 22 23 25 28 29 29 28 27 28 29 30 31 32 33 31 28 26 26 27 29 29 29 29 29 28 26 24 22 21 21 19
8 8 11 11 9 6 4 4 4 3 6 8 7 5 4 8 11 11 7 5 4 2 0 3 5 6 6 5 5 7 8 11 15 18 19 20 19 20 19 19 19 18 18 16 15 13 11 11 11 12 14 16 17 18 18 18 19 20 21 21 20 20 20 19 20 21 22 23 24 26 29 31 31 30 29 29 31 32 34 34 33 30 28 27 28 29 30 30 30 29 29 27 25 24 23 22 20
9 10 11 11 11 10 8 5 6 10 9 5 5 5 6 9 10 10 8 6 5 3 2 1 4 4 4 4 5 8 10 14 18 20 20 19 18 18 18 18 18 19 20 19 18 17 15 13 12 11 11 12 14 15 17 18 19 20 21 22 22 22 22 21 20 20 21 23 25 26 27 29 32 33 32 32 33 34 35 35 34 31 29 29 29 30 30 31 31 30 30 28 26 25 24 23 21
5 8 8 7 6 6 9 8 7 10 7 2 3 4 7 9 9 11 11 8 8 5 2 1 3 3 3 5 6 9 13 17 21 23 23 22 19 18 17 17 18 19 20 20 19 19 18 17 16 14 13 12 12 13 14 16 18 19 20 22 22 23 23 22 21 21 22 23 25 27 28 28 31 34 35 35 35 36 36 36 35 32 31 30 29 30 30 30 31 31 30 29 28 26 25 24 22
3 5 5 6 6 3 6 8 6 5 2 2 5 5 9 10 8 12 15 11 8 6 3 2 4 4 4 5 8 12 16 19 22 24 25 24 23 22 21 20 20 19 19 19 19 19 19 19 18 17 16 15 14 14 14 15 16 17 18 20 21 23 23 23 23 23 23 24 25 26 28 29 30 33 36 37 37 37 37 36 35 33 33 32 30 30 29 29 29 30 30 29 28 28 27 25 24
1 3 4 3 3 4 6 6 4 2 1 2 4 5 12 15 13 13 14 11 8 6 4 4 4 4 5 7 10 14 17 20 22 23 24 25 25 25 24 23 22 21 19 18 18 18 18 18 18 18 18 18 17 17 17 16 16 16 17 18 20 21 22 23 24 24 24 24 24 24 26 27 29 32 37 39 38 38 38 38 36 35 34 33 32 31 30 30 29 29 29 28 28 28 27 26 25
3 5 5 2 3 5 6 5 4 4 3 1 2 4 10 14 15 12 10 9 8 5 4 4 5 5 7 8 12 15 17 19 22 23 24 24 24 25 24 23 22 21 20 18 17 17 17 18 18 18 18 18 18 18 18 19 19 18 17 18 19 20 21 22 23 24 24 24 24 24 25 25 27 32 37 40 41 40 40 39 37 36 36 34 33 32 31 31 30 29 28 28 28 28 28 26 25
5 6 5 4 5 5 5 5 4 3 4 3 3 3 6 8 12 12 10 10 9 5 4 5 6 7 8 10 13 15 18 21 23 22 20 19 20 21 20 20 20 20 20 19 17 17 18 19 19 19 19 18 17 18 18 19 20 20 19 19 19 20 22 23 23 23 24 24 24 23 24 24 25 29 36 41 42 41 39 38 37 35 36 35 33 32 32 31 31 30 29 28 28 28 27 26 25
6 5 6 7 6 5 4 3 2 2 3 4 5 2 3 4 8 11 11 10 9 7 7 8 7 8 10 12 14 18 22 24 23 21 18 17 16 16 15 17 18 18 19 19 19 19 19 19 20 20 20 19 18 18 18 19 20 20 20 20 20 21 22 24 25 24 24 24 24 24 24 23 23 26 32 37 40 40 38 38 37 35 35 35 34 32 32 32 31 30 29 28 28 27 27 26 26
Wind_Direction
55 53 55 58 66 68 67 76 85 99 115 114 111 113 115 116 120 126 131 139 148 151 151 150 153 162 172 180 182 179 172 173 172 161 165 171 165 163 165 168 158 157 159 160 160 155 157 158 156 156 156 154 152 150 147 146 143 142 141 140 138 137 136 136 137 133 126 118 113 118 113 99 86 77 71 67 62 57 53 46 39 31 26 22 20 23 27 35 44 50 51 50 59 86 107 119 131
58 54 52 54 58 62 66 75 90 106 112 111 117 120 119 119 120 127 133 144 156 159 160 160 168 175 180 185 184 182 171 176 188 186 61 167 168 164 163 164 159 158 159 162 162 158 160 160 157 158 159 157 156 154 151 149 146 145 144 142 141 141 141 142 140 133 123 115 115 115 108 96 74 59 61 61 57 52 45 40 34 27 24 20 19 20 23 26 31 37 34 30 42 67 85 116 142
57 54 50 50 54 61 69 80 95 104 102 102 118 122 119 118 122 133 143 150 150 155 165 173 182 188 190 193 188 189 188 189 199 213 169 169 174 165 160 163 160 158 161 164 163 160 163 162 159 161 162 161 160 157 155 152 150 149 147 145 145 145 145 144 139 133 125 115 120 116 111 102 69 48 60 56 53 47 38 33 28 24 22 19 18 19 21 21 23 27 23 20 33 62 80 102 133
58 55 51 49 53 62 69 79 88 90 87 88 113 127 123 121 127 136 142 141 138 148 161 173 186 194 201 210 205 205 215 219 211 216 199 165 177 169 160 164 161 158 161 165 165 162 163 165 162 163 165 165 163 161 159 156 154 151 151 151 150 149 147 146 139 136 135 121 124 121 117 108 65 52 69 53 47 41 31 25 22 20 19 18 18 18 18 16 18 18 15 18 32 56 76 91 111
57 57 56 54 56 61 68 75 82 82 84 87 104 128 130 125 124 130 136 132 129 140 152 163 182 196 207 214 207 206 217 223 214 215 207 169 177 174 166 165 160 157 160 165 165 162 164 167 165 166 168 168 166 165 163 160 158 156 157 157 154 152 152 153 146 144 145 131 130 126 119 107 65 61 64 45 39 31 22 15 14 14 16 17 16 18 17 16 15 14 17 23 41 57 66 82 100
51 54 57 58 57 60 69 75 78 80 84 88 94 113 127 132 129 125 132 136 133 136 145 157 174 193 211 217 207 202 209 219 212 212 207 176 176 176 172 167 160 157 159 163 165 164 166 169 169 169 171 171 169 169 168 164 162 161 161 162 160 159 160 161 158 156 155 143 136 128 119 101 69 63 51 34 28 21 15 8 6 5 10 14 13 17 20 17 11 11 23 35 54 70 77 99 133
44 46 53 59 58 59 68 73 75 78 81 85 88 98 113 128 134 130 134 136 128 130 137 151 171 181 204 216 211 209 213 226 218 206 193 176 178 176 173 169 160 158 159 162 165 166 167 170 171 171 174 173 171 172 172 170 167 166 166 167 167 167 166 166 164 164 161 151 141 132 122 98 74 58 34 21 16 13 12 5 2 359 3 10 10 14 20 16 9 10 17 34 55 78 100 130 149
38 39 45 54 57 60 64 67 71 74 77 78 79 91 107 120 125 129 134 127 115 119 125 146 176 177 191 209 216 221 222 234 223 195 175 172 179 174 173 172 162 159 160 162 165 167 168 171 172 173 176 175 174 175 176 175 173 172 171 172 174 172 170 171 169 168 165 157 149 140 126 101 77 51 27 22 19 15 12 4 0 357 359 7 11 12 12 7 9 12 9 26 51 76 89 97 129
34 32 35 43 49 57 63 63 64 67 70 73 73 80 101 122 126 122 116 105 178 126 122 141 168 176 217 217 232 235 226 230 215 177 162 169 178 172 173 173 163 160 161 163 165 166 169 172 174 176 178 178 177 178 180 179 178 177 176 178 179 176 175 175 173 172 171 165 157 151 136 107 75 47 37 32 25 19 12 7 2 356 355 5 13 10 1 7 8 9 4 13 35 62 72 3 196
35 27 23 28 36 49 60 61 60 62 65 69 73 77 90 119 130 111 78 147 181 147 141 117 36 321 273 228 246 236 216 212 193 160 155 169 176 171 174 171 163 162 164 165 164 166 170 173 175 178 180 181 181 181 183 183 183 182 181 182 182 181 179 177 178 177 175 172 168 164 151 105 65 43 39 24 14 12 9 5 358 353 357 7 13 7 3 27 14 6 1 358 9 19 296 228 237
28 21 15 16 20 37 54 58 57 62 67 68 71 77 86 102 112 92 59 111 155 161 202 231 235 260 249 221 239 209 190 184 164 148 153 168 173 172 175 172 164 163 167 168 165 166 169 172 176 179 181 183 185 185 186 186 186 186 186 185 186 186 181 179 183 182 182 182 180 178 164 73 25 9 11 4 2 3 5 360 347 348 0 10 13 8 22 36 25 11 358 346 348 338 295 240 226
15 13 11 12 8 15 40 52 54 62 70 70 70 71 81 90 98 94 72 91 131 157 188 202 198 203 211 211 201 177 181 170 149 145 159 169 171 174 176 174 167 164 167 171 168 167 168 172 175 179 183 186 187 188 188 189 188 189 189 188 189 189 184 184 188 190 194 197 197 203 228 2 345 336 340 349 354 355 359 355 340 340 359 10 14 14 31 36 32 13 350 333 333 322 297 272 243
6 5 7 11 6 359 21 49 55 64 71 71 70 67 73 81 84 86 79 80 100 132 154 148 155 158 185 197 174 177 184 173 153 152 167 174 173 175 177 175 170 166 168 172 172 169 169 172 176 179 185 188 189 189 188 189 190 190 191 190 190 190 190 191 195 199 204 212 218 227 246 268 309 323 331 336 346 349 351 352 336 330 351 3 13 22 34 34 25 6 336 319 323 311 295 291 285
357 355 359 9 7 4 19 48 56 64 71 70 70 67 67 73 73 72 74 74 80 97 105 85 80 107 119 97 63 173 185 182 166 160 168 176 177 177 180 178 173 170 169 173 175 174 172 174 178 181 186 189 189 189 188 189 191 192 192 193 192 192 195 197 200 205 212 221 231 235 247 261 277 308 327 331 339 344 344 347 333 323 339 348 5 23 30 28 9 352 320 307 313 309 297 297 301
345 346 346 1 8 10 21 49 56 62 72 72 71 69 66 69 72 69 71 71 64 64 77 78 65 80 89 77 80 136 178 187 179 168 168 175 178 179 183 182 178 173 171 174 176 178 177 178 182 185 188 191 192 192 192 193 195 196 196 196 196 197 199 201 204 209 215 222 231 240 253 267 270 292 320 330 335 338 340 341 329 316 324 326 324 296 328 4 356 333 307 303 307 313 300 298 304
339 336 329 341 4 13 26 50 55 57 73 75 71 70 67 67 73 70 69 71 58 51 66 71 53 65 81 72 117 140 159 180 184 177 172 175 179 181 184 186 183 179 176 175 177 181 181 182 186 188 192 196 197 198 198 199 201 202 202 202 203 205 205 205 211 213 216 222 231 241 255 267 270 286 309 323 327 331 334 334 324 311 312 301 257 221 247 308 348 283 297 298 297 304 297 299 305
335 330 318 322 351 22 35 47 52 54 70 76 71 70 68 64 69 71 69 68 59 50 58 64 53 58 76 69 82 129 155 173 182 182 178 179 184 184 186 188 187 186 184 179 178 182 184 186 189 192 196 200 203 205 205 205 207 209 211 211 212 215 214 213 217 219 220 225 233 243 253 264 271 280 296 308 316 323 327 329 319 304 307 290 242 235 251 301 305 266 290 276 254 235 281 294 303
331 328 310 318 359 37 44 47 51 53 64 69 69 69 71 69 69 70 66 61 52 45 52 63 67 74 89 90 79 99 159 179 184 188 187 186 191 192 190 190 189 189 190 187 183 183 185 189 191 194 200 204 208 211 212 212 213 216 219 222 222 224 226 225 225 226 228 232 238 246 255 263 272 277 287 296 305 316 323 325 316 299 299 279 236 243 265 294 250 265 283 252 225 187 200 299 306
327 318 299 7 38 49 52 58 57 59 60 60 64 67 71 76 75 70 63 55 47 41 49 62 72 87 97 97 92 97 144 182 186 193 195 193 198 200 196 193 191 191 194 195 191 187 187 191 193 196 202 207 212 216 217 219 219 221 225 228 231 233 236 237 237 237 237 239 242 249 256 263 271 275 282 290 299 310 317 322 318 304 285 260 235 246 254 247 243 272 277 263 260 106 87 336 317
316 313 327 42 59 63 62 62 60 64 63 56 58 64 69 76 79 75 64 54 48 44 50 59 63 78 93 95 97 106 130 168 182 189 194 198 203 204 200 197 196 196 198 199 197 194 193 193 196 199 203 208 214 219 221 224 224 224 228 231 235 239 242 245 246 246 246 246 248 251 257 263 269 274 279 286 294 304 313 318 319 310 273 241 239 253 237 211 237 275 281 295 344 20 29 14 334
309 355 48 50 38 75 65 56 63 68 66 58 55 61 66 70 77 78 69 55 47 47 56 58 56 65 83 92 98 112 128 148 158 168 179 190 201 204 200 197 199 204 204 204 202 200 199 199 200 202 205 209 215 221 224 227 229 228 230 233 237 241 245 249 251 252 251 251 252 254 257 262 267 272 276 281 290 298 308 314 316 308 258 224 238 255 240 207 229 276 291 317 5 16 8 357 351
245 51 74 78 45 70 60 57 73 75 68 62 58 61 65 66 69 72 68 56 46 49 58 55 56 67 75 82 87 100 119 132 139 156 168 182 197 200 197 192 195 205 207 206 205 203 203 206 207 209 210 212 216 220 224 228 230 231 232 235 238 243 247 251 253 253 253 253 254 256 257 261 265 270 273 277 285 292 302 309 309 301 246 218 237 251 237 213 231 321 312 340 17 15 2 352 351
266 341 88 96 76 86 67 67 80 82 76 67 63 64 65 64 62 64 61 54 47 49 53 48 53 60 66 75 83 90 99 111 131 154 162 176 192 194 194 192 194 206 209 204 204 205 206 209 212 216 217 218 221 223 226 229 232 232 233 236 238 243 246 250 254 254 253 253 254 256 257 259 263 266 270 274 280 285 296 301 299 291 244 223 238 250 238 220 230 352 329 7 27 11 354 354 356
315 322 109 77 87 99 75 77 81 81 80 68 63 64 64 61 58 58 54 50 46 45 46 43 44 52 73 84 91 98 98 99 116 149 160 170 183 186 186 191 198 206 209 203 200 203 204 208 213 217 221 223 227 229 231 233 235 235 234 235 237 241 245 248 252 253 253 253 254 255 255 258 261 264 267 270 273 278 289 294 286 273 239 229 241 250 245 230 229 264 334 26 29 359 8 7 4
326 319 125 46 70 106 77 84 86 79 77 65 59 63 64 58 54 55 50 45 40 41 43 43 42 52 82 90 93 99 98 97 105 130 154 164 175 183 184 188 201 206 210 208 202 203 204 206 210 213 216 223 230 232 235 236 237 237 236 236 236 240 245 247 250 252 254 254 254 254 254 256 258 261 263 264 267 271 280 284 274 258 236 230 239 245 244 236 235 262 315 27 10 354 23 22 16
6 349 172 20 34 112 74 84 92 86 79 67 59 60 65 58 53 53 48 39 34 39 45 45 46 52 75 84 85 94 97 103 112 125 146 164 171 177 178 185 198 205 209 212 212 213 212 209 209 211 210 216 226 230 233 235 236 237 237 237 237 240 245 247 249 251 253 255 254 254 253 253 254 257 258 259 260 265 272 270 261 252 236 229 237 241 239 236 241 268 296 333 337 5 17 20 27
20 20 237 310 338 255 59 81 93 90 83 76 63 55 62 61 54 51 47 38 30 35 43 47 50 52 62 67 66 68 72 80 93 109 125 154 166 165 167 175 187 198 203 207 218 225 227 221 211 212 211 211 220 225 228 230 232 233 234 235 236 238 243 246 248 250 251 253 253 252 251 249 250 251 252 254 257 262 264 259 253 248 235 230 238 242 239 240 244 258 280 298 298 11 29 21 33
10 10 334 266 250 246 247 82 92 90 87 86 69 52 58 63 58 51 47 42 31 31 37 39 42 48 55 53 46 37 36 42 47 73 106 151 166 160 160 166 174 187 199 204 218 224 229 229 214 211 214 211 214 219 224 227 228 230 231 232 233 235 239 241 244 246 249 251 251 249 246 244 245 247 248 249 255 258 256 251 248 243 233 228 238 243 241 243 242 249 262 294 310 359 30 22 31
347 351 325 296 265 239 238 205 111 85 92 87 63 47 54 61 61 52 48 43 33 31 30 24 31 43 47 45 50 48 40 44 54 58 66 167 188 173 161 163 169 176 189 201 214 222 229 235 224 217 219 215 214 216 220 223 225 227 229 230 232 234 236 238 240 242 244 246 247 246 243 241 242 244 244 244 249 251 247 246 243 238 232 227 234 241 241 245 247 249 254 295 324 355 12 15 27
313 316 304 307 298 253 243 220 149 75 119 71 48 43 55 58 59 51 44 39 32 30 21 15 33 44 40 38 46 56 50 39 41 38 23 2 232 178 163 176 187 184 191 200 208 218 224 230 230 229 227 224 222 221 220 220 222 225 226 228 230 232 234 236 237 239 241 242 244 245 242 241 241 241 240 240 242 243 240 240 238 233 231 228 231 238 239 242 253 256 257 287 321 350 359 5 23
275 291 293 290 291 268 246 222 195 160 204 52 37 55 68 61 60 51 37 26 20 21 11 9 31 40 37 40 41 50 57 45 36 32 20 6 17 81 136 184 199 193 197 199 202 213 219 220 225 230 228 225 227 229 226 223 223 223 224 225 228 231 233 233 234 237 240 241 242 243 242 240 240 239 237 236 237 237 236 234 233 230 229 228 228 234 236 236 248 258 262 271 300 337 345 355 11
255 277 292 291 290 278 242 218 206 193 204 87 39 67 83 71 66 54 33 15 6 3 2 5 24 34 30 29 26 31 39 48 45 42 41 35 47 72 99 157 189 189 194 200 201 209 216 215 219 224 223 220 222 229 231 229 227 226 225 225 226 229 231 231 232 236 238 240 242 243 244 243 242 241 238 236 235 234 233 230 229 230 229 226 226 230 234 235 241 249 251 254 274 306 323 340 351
253 274 297 314 316 301 248 220 210 190 198 220 346 352 93 86 84 58 27 13 8 355 354 358 9 19 22 25 24 25 29 44 53 47 54 58 60 73 93 115 162 195 207 212 203 198 198 205 215 219 221 218 215 222 228 229 230 231 229 230 232 233 233 233 233 236 238 240 243 244 245 244 243 243 242 238 235 233 231 228 226 229 228 223 223 226 230 234 237 240 241 243 251 271 299 316 327
261 296 309 323 325 314 277 232 215 192 193 218 257 284 120 107 186 201 358 7 13 354 351 354 356 1 12 28 31 33 38 51 58 48 54 53 50 59 96 141 185 212 224 224 213 201 186 185 208 215 219 219 215 217 221 223 227 229 231 235 240 242 241 238 236 239 242 243 245 246 246 246 244 242 242 240 236 232 228 226 225 228 228 222 220 223 227 229 232 235 234 238 248 255 279 302 320
301 309 311 313 314 313 296 240 211 195 195 208 229 258 178 134 199 223 292 352 13 353 351 354 354 356 6 23 26 29 32 35 35 35 43 39 39 58 51 209 193 189 211 223 219 211 187 177 195 206 213 216 213 213 214 218 221 223 225 231 238 244 245 243 242 244 246 248 249 249 248 247 245 242 241 240 236 231 226 224 224 227 228 223 219 220 223 224 226 231 232 235 247 258 274 291 312
296 302 307 308 311 314 299 218 200 193 196 202 217 239 197 159 191 214 282 341 2 353 356 353 1 17 28 40 37 32 29 27 29 31 34 27 46 94 44 139 163 170 194 208 209 208 197 193 198 205 216 220 218 215 212 213 216 219 223 228 234 238 241 243 244 245 246 248 249 249 248 247 245 242 240 240 236 230 225 223 223 227 228 223 218 218 222 222 221 228 232 232 241 254 270 278 295
299 307 308 307 310 318 280 188 191 189 197 197 206 223 193 173 189 190 301 2 9 2 15 2 13 42 51 53 50 44 42 46 49 48 47 58 115 97 32 58 179 201 214 215 214 217 221 217 210 214 229 237 236 231 222 216 213 217 224 230 235 236 238 241 242 243 245 247 246 246 245 244 243 241 239 238 236 229 225 224 224 227 228 224 219 218 221 221 219 225 230 228 231 246 268 279 285
310 312 307 303 304 315 139 179 185 184 199 193 192 211 184 174 188 117 335 0 21 13 25 14 17 41 46 48 48 50 54 58 60 56 56 66 81 62 24 25 193 231 243 245 242 242 241 234 225 225 230 233 238 239 237 230 219 217 219 220 225 227 231 237 239 241 242 242 244 245 244 243 241 239 237 235 233 228 224 224 226 229 230 227 222 219 220 220 219 223 226 223 225 237 261 278 281
307 304 296 296 285 198 151 178 185 184 199 193 187 203 171 169 205 43 324 348 26 18 24 20 21 36 39 43 47 55 61 64 67 66 63 61 56 49 47 54 51 303 257 255 255 255 250 246 240 236 237 239 235 228 229 233 229 223 220 217 218 220 224 229 232 233 235 238 243 245 245 246 244 240 236 233 229 225 223 224 227 230 231 229 226 223 221 220 220 223 225 224 225 230 248 270 273
294 280 268 279 262 214 171 177 184 185 198 200 193 194 157 156 220 356 294 6 37 17 18 19 24 39 47 50 54 57 57 58 64 70 69 61 53 51 57 60 42 356 272 252 250 249 244 246 246 241 244 249 242 230 223 224 226 223 223 224 222 223 227 233 235 232 234 240 243 245 246 248 250 245 237 231 226 223 222 224 228 231 232 230 227 225 222 221 222 224 226 228 228 227 239 261 262
305 271 258 277 263 237 200 182 181 182 194 205 196 181 131 117 352 328 289 25 26 12 20 20 29 49 51 53 56 54 53 54 58 65 71 67 56 50 44 32 6 340 313 279 260 253 249 247 245 242 245 245 241 240 233 227 228 225 225 231 233 233 235 243 249 246 240 241 241 244 245 245 248 245 236 228 223 222 222 224 228 232 233 231 228 226 223 223 223 224 228 232 236 234 237 253 258
338 301 293 299 271 236 207 185 178 178 183 188 188 172 87 78 12 8 11 16 9 7 19 30 55 60 53 53 56 56 55 57 60 62 69 69 49 37 27 12 354 341 330 320 306 296 293 283 271 266 259 247 239 242 241 239 240 236 233 237 243 242 238 241 249 248 240 235 232 233 234 234 238 237 231 227 223 222 223 225 229 233 234 232 227 225 224 224 223 224 228 233 240 241 239 246 257
356 345 335 280 252 232 212 192 181 182 184 178 184 192 136 141 134 48 35 10 0 358 1 22 60 63 56 52 49 53 55 58 61 60 63 72 70 29 9 3 356 352 338 325 323 324 323 318 311 299 282 267 257 255 256 254 250 245 241 240 241 240 237 238 244 245 239 232 227 228 228 227 231 230 225 224 225 224 225 228 232 234 235 231 226 224 223 224 224 223 227 232 238 241 240 243 250
343 343 3 308 248 233 216 197 189 193 186 173 182 206 171 157 174 151 77 14 350 342 342 358 48 55 45 38 31 34 44 51 55 54 54 57 62 50 19 10 359 347 333 319 315 317 317 316 316 312 298 280 273 272 270 266 258 252 248 245 243 242 238 236 240 243 242 238 232 231 232 230 231 231 227 223 224 227 230 231 233 234 234 230 226 223 223 224 224 223 225 231 236 239 241 242 243
317 331 35 50 240 222 204 194 195 197 184 171 175 190 160 156 180 177 113 20 336 322 324 340 11 27 18 11 8 7 16 29 39 44 46 42 33 17 359 353 345 331 318 312 312 309 307 305 304 303 299 289 279 278 278 274 269 261 257 255 254 252 248 242 240 238 236 238 237 235 235 233 231 232 231 227 224 226 230 233 234 234 233 230 226 224 223 223 224 225 226 231 236 238 239 240 241
280 306 73 119 197 203 191 190 193 188 180 179 177 170 136 166 188 185 133 41 326 316 313 330 351 2 356 352 351 344 345 360 11 20 24 21 13 356 338 322 318 311 296 297 300 300 298 295 293 290 291 290 284 280 280 280 278 272 267 265 265 263 259 253 248 242 236 235 236 235 236 236 233 232 233 232 230 230 231 232 233 234 233 230 227 225 224 223 224 226 228 232 237 239 239 240 241
255 255 128 141 170 183 179 182 183 173 185 206 190 186 191 182 194 190 147 136 308 316 324 331 343 346 344 345 346 339 338 348 0 7 7 4 1 354 339 315 304 298 286 284 287 290 290 289 288 287 284 284 285 284 282 279 278 276 272 269 270 271 267 261 256 250 243 239 237 234 233 234 234 233 232 233 235 237 238 236 233 232 232 230 227 226 225 225 225 226 228 231 235 239 240 241 242
248 211 158 141 148 164 164 163 167 173 278 236 197 200 229 208 196 190 160 155 250 348 3 355 356 351 347 349 346 342 345 355 3 4 1 356 353 349 341 324 309 298 289 284 283 283 282 281 282 284 283 279 279 280 280 278 277 277 274 270 270 271 270 268 264 259 253 248 242 235 233 232 232 232 232 232 234 237 239 238 234 230 232 231 228 227 226 225 226 226 227 230 233 237 241 244 245
213 187 164 141 119 140 152 161 178 220 274 181 184 199 226 221 180 172 157 150 153 81 38 29 20 5 352 348 348 351 356 0 1 358 353 347 342 337 332 327 319 310 301 293 287 284 282 279 276 276 278 278 278 277 274 274 274 275 274 271 269 268 269 270 269 264 260 256 249 241 237 234 232 230 230 231 231 233 237 240 236 231 232 233 230 228 226 226 226 227 229 231 234 237 241 246 249
178 187 176 156 120 119 152 205 195 298 207 169 174 196 209 167 157 153 147 140 129 94 46 34 23 9 359 357 1 1 1 0 358 353 347 342 336 332 327 324 321 317 314 309 302 295 287 282 277 273 274 275 277 277 273 271 271 273 273 273 273 271 271 270 268 265 260 257 254 248 243 240 236 232 229 230 229 231 234 239 238 233 232 234 233 230 228 227 228 228 230 232 234 238 241 245 249
134 166 189 184 175 175 181 198 188 150 152 160 176 206 188 163 156 152 155 152 137 161 203 32 23 14 9 6 0 357 358 358 355 348 342 336 332 329 326 325 325 324 323 322 320 315 304 293 284 277 273 272 273 274 272 271 272 274 274 274 275 275 275 273 271 267 260 256 253 251 248 244 240 235 231 229 229 229 231 234 236 233 230 232 234 233 231 229 229 231 232 233 233 236 240 244 247
130 150 179 184 186 184 158 153 170 148 133 143 181 197 180 170 164 160 169 182 180 204 226 46 23 13 1 348 345 349 353 352 348 344 339 334 329 324 323 324 325 325 326 325 325 323 319 312 303 290 279 271 269 269 267 267 269 271 271 271 273 275 276 275 275 273 268 262 257 254 251 247 242 236 231 230 229 229 228 229 233 233 229 230 233 234 233 231 231 233 234 235 235 236 239 242 245
150 149 153 139 141 162 138 114 128 137 124 134 175 177 179 178 180 181 188 198 199 213 240 308 352 356 342 337 345 347 346 345 343 341 338 334 329 324 322 321 320 320 320 320 321 321 320 318 314 308 300 287 278 271 267 265 264 265 263 264 267 271 272 273 274 275 274 270 265 260 256 251 245 238 232 230 229 228 226 226 228 231 230 228 230 233 234 233 233 233 235 237 238 238 239 242 244
167 155 138 110 99 127 132 116 116 111 76 189 185 201 200 193 197 198 199 204 210 219 244 297 324 334 332 335 343 343 342 341 339 337 334 331 329 328 326 324 322 320 319 318 318 318 318 319 318 316 313 308 300 290 281 274 268 265 261 259 262 266 270 272 273 274 274 274 271 267 260 254 248 241 233 230 228 227 226 225 226 228 229 227 227 229 232 233 234 234 235 237 239 239 241 242 244
132 127 124 111 119 136 125 119 134 121 65 207 206 225 221 215 212 207 204 208 214 220 242 282 304 317 329 335 339 340 339 336 333 331 329 326 326 326 326 325 325 325 325 324 321 319 318 319 320 319 317 314 310 304 297 290 282 275 267 261 260 263 268 271 273 274 275 277 276 273 267 259 250 241 234 230 229 228 224 223 223 226 228 227 226 226 228 230 232 233 234 237 239 241 242 244 246
116 119 120 105 129 144 139 130 142 149 139 183 212 227 239 230 217 212 210 211 216 224 248 272 285 306 324 330 333 335 333 328 324 323 323 321 320 320 320 321 324 325 327 328 326 323 320 319 318 318 317 315 312 307 302 297 291 285 278 270 263 261 264 267 271 274 276 278 279 277 275 268 253 240 234 230 229 229 226 222 220 222 226 227 225 226 227 229 231 233 234 237 239 241 242 243 245
151 144 134 118 114 126 136 129 122 140 155 149 151 227 254 230 209 212 217 221 229 244 265 269 279 299 315 322 326 327 324 320 319 320 321 319 317 315 315 318 321 323 323 324 324 322 319 317 317 317 316 314 311 307 303 298 294 290 286 280 272 265 262 263 267 272 275 278 279 277 278 275 260 242 233 228 228 230 231 228 224 221 221 225 226 225 226 228 231 233 235 237 239 241 241 241 242
155 143 116 106 99 108 123 122 145 167 169 160 157 224 261 208 196 207 216 228 237 249 260 265 281 298 311 321 324 322 320 319 321 325 327 325 320 316 313 314 316 317 317 318 318 317 315 314 314 314 314 312 309 305 301 298 294 290 286 283 279 273 267 262 263 266 272 277 278 278 277 276 267 249 236 230 228 230 232 232 230 225 219 221 225 225 225 226 228 231 234 238 240 242 243 243 242